SCP
0 0 0 0 0 0 0 0 0 0 0 0 0 0 0 0 0 0 0 0 0 0 0 0 0 0 0 0 0 0 0 0 0 0 0 0 0 0
0 0 0 0 0 0 0 0 0 0 0 0 0 0 0 0 0 0 0 0 0 0 0 0 0 0 0 0 0 0 0 0 0 0 0 0 0 0
0 0 0 0 0 0 0 0 0 0 0 0 0 0 0 0 0 0 0 0 0 0 0 0 0 0 0 0 0 0 0 0 0 0 0 0 0 0
0 0 0 0 0 0 0 0 0 0 0 0 0 0 0 0 0 0 0 0 0 0 0 0 0 0 0 0 0 0 0 0 0 0 0 0 0 0
0 0 0 0 0 0 0 0 0 0 0 0 0 0 0 0 0 0 0 0 0 0 0 0 0 0 0 0 0 0 0 0 0 0 0 0 0 0
0 0 0 0 0 0 0 0 0 0 0 0 0 0 0 0 0 0 0 0 0 0 0 0 0 0 0 0 0 0 0 0 0 0 0 0 0 0
0 0 0 0 0 0 0 0 0 0 0 0 0 0 0 0 0 0 0 0 0 0 0 0 0 0 0 0 0 0 0 0 0 0 0 0 0 0
0 0 0 0 0 0 0 0 0 0 0 0 0 0 0 0 0 0 0 0 0 0 0 0 0 0 0 0 0 0 0 0 0 0 0 0 0 0
0 0 0 0 0 0 0 0 0 0 0 0 0 0 0 0 0 0 0 0 0 0 0 0 0 0 0 0 0 0 0 0 0 0 0 0 0 0
0 0 0 0 0 0 0 0 0 0 0 0 0 0 0 0 0 0 0 0 0 0 0 0 0 0 0 0 0 0 0 0 0 0 0 0 0 0
0 0 0 0 0 0 0 0 0 0 0 0 0 0 0 0 0 0 0 0 0 0 0 0 0 0 0 0 0 0 0 0 0 0 0 0 0 0
0 0 0 0 0 0 0 0 0 0 0 0 0 0 0 0 0 0 0 0 0 0 0 0 0 0 0 0 0 0 0 0 0 0 0 0 0 0
0 0 0 0 0 0 0 0 0 0 0 0 0 0 0 0 0 0 0 0 0 0 0 0 0 0 0 0 0 0 0 0 0 0 0 0 0 0
0 0 0 0 0 0 0 0 0 0 0 0 0 0 0 0 0 0 0 0 0 0 0 0 0 0 0 0 0 0 0 0 0 0 0 0 0 0
0 0 0 0 0 0 0 0 0 0 0 0 0 0 0 0 0 0 0 0 0 0 0 0 0 0 0 0 0 0 0 0 0 0 0 0 0 0
0 0 0 0 0 0 0 0 0 0 0 0 0 0 0 0 0 0 0 0 0 0 0 0 0 0 0 0 0 0 0 0 0 0 0 0 0 0
0 0 0 0 0 0 0 0 0 0 0 0 0 0 0 0 0 0 0 0 0 0 0 0 0 0 0 0 0 0 0 0 -0 0 0 0 0 0
0 0 0 0 0 0 0 0 0 0 0 0 0 0 0 0 0 0 0 0 0 0 0 0 0 0 0 0 -0 0 0 0 0 0 0 0 0 0
0 0 0 0 0 0 0 0 0 0 0 0 0 0 0 0 0 0 0 0 0 0 0 0 0 0 0 0 0 0 0 0 0 0 0 0 0 0
0 0 0 0 0 0 0 0 0 0 0 0 0 0 0 0 0 0 0 0 0 0 0 0 0 0 0 0 0 0 0 0 0 0 0 0 0 0
0 0 0 0 0 0 0 0 0 0 0 0 0 0 0 0 0 0 0 0 0 0 0 0 0 0 0 0 0 0 0 0 0 0 0 0 -0 0
0 0 0 0 0 0 0 0 0 0 0 0 0 0 0 0 0 0 0 0 0 0 0 0 0 0 0 0 0 0 0 0 0 0 0 0 0 -0
0 0 0 0 0 0 0 0 0 0 0 0 0 0 0 0 0 0 0 0 0 0 0 0 0 0 0 0 0 0 0 0 0 0 0 0 0 0
Wind_Speed_500mb
47 49 44 44 46 47 42 43 45 32 31 38 36 37 37 33 33 32 29 26 31 36 41 40 44 44 46 54 59 57 54 50 46 37 30 29 28 25
48 40 41 42 46 45 46 41 40 33 38 35 35 36 35 31 28 28 30 29 30 35 37 42 45 43 41 43 41 38 36 32 29 25 24 25 29 25
40 39 38 38 36 33 30 29 25 27 30 32 34 30 25 22 22 28 30 30 34 34 40 39 35 36 36 36 32 33 32 31 25 22 23 24 27 25
31 31 30 29 25 18 19 23 27 25 25 28 26 22 19 18 19 24 28 29 25 27 27 29 32 35 36 33 31 32 32 29 23 21 22 26 27 27
25 20 20 16 13 14 16 14 14 15 18 19 19 17 16 15 15 19 23 25 24 27 27 26 26 29 31 32 31 28 23 22 22 24 29 31 32 31
15 14 9 7 9 10 8 8 10 11 12 12 13 14 13 14 18 18 18 20 21 23 26 30 33 33 30 25 24 24 23 24 26 28 30 32 32 30
14 10 9 10 12 10 7 9 10 12 13 11 12 11 14 15 16 17 18 20 23 25 28 32 29 24 24 26 26 26 26 26 27 31 35 38 34 32
10 8 8 6 5 4 5 7 11 12 14 14 14 14 15 15 18 19 22 24 22 23 23 17 25 24 27 27 29 29 28 32 36 39 42 38 34 34
9 6 3 4 5 6 7 9 12 13 14 14 15 16 18 19 20 21 22 23 21 20 23 19 19 21 27 29 32 34 37 38 36 34 35 38 45 50
4 1 2 5 7 9 12 14 15 17 16 16 15 16 17 19 20 22 20 18 16 19 22 23 21 25 24 32 38 36 30 22 20 32 44 47 48 48
2 4 5 9 11 10 14 14 13 15 16 17 17 16 15 15 18 15 10 13 16 18 26 27 25 30 30 27 19 11 7 20 37 38 42 47 49 50
4 6 8 10 13 11 11 11 11 12 13 14 14 14 13 13 12 14 16 19 22 20 18 26 33 34 23 18 10 11 27 36 22 41 41 43 46 49
5 7 10 13 12 12 10 10 9 9 10 10 10 9 10 13 15 18 21 25 28 31 29 34 40 40 35 42 40 35 35 36 41 33 34 35 32 40
6 7 10 11 10 10 10 11 10 8 9 9 9 11 14 18 22 25 28 31 33 34 31 33 39 41 42 50 56 46 54 52 47 37 15 31 38 39
7 8 8 10 9 10 11 10 10 11 11 12 14 18 20 23 26 29 31 33 35 33 29 29 33 38 41 48 60 57 59 54 42 35 39 39 44 45
8 8 10 10 11 11 12 13 14 15 16 17 20 24 28 29 28 28 29 30 32 21 19 24 31 39 42 43 51 60 54 60 53 40 42 46 45 42
9 11 13 14 14 14 15 16 17 19 22 23 25 28 27 27 27 26 26 29 31 30 25 19 30 41 44 46 54 53 54 48 43 41 45 53 46 44
10 13 15 17 18 19 20 21 22 24 26 28 31 30 30 30 30 28 26 29 33 31 33 34 35 38 44 47 44 43 45 43 36 45 46 56 59 47
14 16 18 20 21 23 24 26 26 27 30 32 34 32 32 33 32 30 28 31 33 36 35 36 35 33 43 53 60 44 38 48 50 47 47 49 56 53
18 19 21 24 25 26 27 28 28 31 34 35 37 37 36 36 37 34 32 36 39 41 41 32 31 34 42 50 59 60 48 50 47 51 51 48 50 50
22 23 25 27 28 30 31 32 34 35 37 39 40 40 40 41 42 40 39 39 42 45 50 45 34 36 43 50 58 61 56 51 46 49 50 54 55 60
26 28 28 30 31 33 35 37 38 38 39 41 42 43 43 43 44 44 42 44 44 46 51 49 41 40 43 47 56 60 60 51 46 46 41 41 49 54
30 31 30 32 33 36 38 40 40 39 40 41 42 43 45 46 46 46 45 47 50 52 51 52 50 48 48 51 55 59 61 59 57 56 48 50 59 55
Wind_Direction_500mb
268 273 275 272 273 269 272 276 279 278 292 294 292 289 297 296 297 290 287 266 247 247 255 263 275 275 266 262 262 266 270 273 273 276 280 288 287 282
271 271 271 271 268 268 272 271 271 281 282 289 289 292 291 289 288 289 280 266 255 256 263 271 276 273 269 272 275 273 274 273 274 276 281 276 277 278
270 267 265 263 265 265 268 280 279 280 283 283 283 281 282 280 284 277 276 274 269 270 273 272 272 270 270 268 266 269 273 273 276 279 277 278 282 280
259 259 259 261 259 259 262 263 257 262 269 272 272 273 277 276 272 272 275 282 280 277 273 273 271 268 266 268 277 278 277 280 277 278 279 278 277 281
255 250 255 250 262 264 271 278 270 271 274 273 276 284 286 287 286 280 273 273 275 274 276 278 275 274 277 278 276 277 279 285 288 288 285 283 283 282
230 234 225 238 266 271 269 265 270 278 283 287 294 301 297 291 282 273 267 262 267 274 277 276 275 278 279 280 283 286 289 290 290 289 286 284 283 283
206 195 204 231 249 256 266 278 285 290 291 294 284 282 281 275 276 280 282 285 288 288 283 282 283 276 276 284 282 284 288 290 289 286 286 286 288 287
179 188 218 242 256 263 290 297 294 299 295 296 292 286 281 280 281 283 286 288 295 290 287 274 283 283 282 283 285 286 287 290 286 280 280 289 290 289
176 198 212 252 275 296 299 295 299 300 299 299 295 292 290 288 287 289 294 297 297 290 292 289 283 280 281 279 284 291 288 282 281 286 289 287 287 288
183 213 271 289 299 299 300 298 299 299 301 302 299 297 294 294 292 292 293 294 299 300 300 300 298 295 289 288 291 286 281 278 280 283 282 281 283 286
257 289 301 300 308 306 301 300 304 306 308 309 311 308 307 305 308 313 313 301 302 306 302 302 307 306 311 302 286 274 258 284 292 287 288 289 289 290
286 297 312 308 309 313 318 319 314 307 304 304 304 302 299 299 300 304 305 305 308 317 299 306 305 314 317 296 218 285 292 299 287 302 293 288 289 291
300 311 315 322 330 324 323 319 317 315 311 308 304 297 292 292 296 297 297 298 299 299 301 299 301 305 304 299 292 296 302 305 309 308 294 286 290 296
310 320 322 323 317 317 318 316 317 311 308 306 302 298 297 297 298 297 297 298 298 300 305 298 294 298 298 298 299 310 309 314 318 323 301 299 295 294
324 321 314 316 315 314 315 311 302 301 302 301 300 299 298 298 296 296 295 297 299 305 304 300 295 293 288 291 297 305 310 316 317 315 311 303 305 304
317 319 320 321 317 311 308 301 296 293 293 294 297 298 299 298 298 298 297 296 295 301 301 303 298 296 297 296 294 299 309 307 311 312 308 306 310 308
310 315 315 314 311 309 304 298 293 291 292 295 298 299 298 300 302 302 301 302 307 314 308 296 293 295 296 298 296 304 309 303 307 308 305 304 307 313
302 307 307 309 310 306 301 295 289 287 291 297 301 301 301 301 302 304 303 299 304 307 309 311 306 297 292 289 295 305 305 304 309 309 308 308 310 314
299 301 305 307 306 304 298 296 291 288 291 295 298 299 299 299 299 302 299 297 300 303 307 310 308 302 303 302 308 310 312 315 315 308 309 308 306 312
291 298 301 300 303 303 301 300 295 292 293 296 299 301 299 297 296 295 292 294 298 301 302 306 314 304 297 301 300 303 311 312 313 313 313 308 308 311
288 293 294 297 300 302 302 300 299 297 297 299 301 302 301 297 293 292 289 292 299 304 304 307 312 305 301 298 294 303 311 312 312 314 315 312 317 318
283 289 293 297 299 300 299 299 298 298 297 297 298 297 296 296 294 291 289 290 293 296 299 303 305 305 298 295 296 300 304 309 312 309 303 304 309 304
282 288 292 295 297 297 298 297 296 298 297 296 295 294 292 292 292 291 290 290 293 296 299 303 304 307 303 301 303 304 308 313 318 316 311 324 320 312
Wind_Speed_850mb
47 49 44 44 46 47 42 43 45 32 31 38 36 37 37 33 33 32 29 26 31 36 41 40 44 44 46 54 59 57 54 50 46 37 30 29 28 25
48 40 41 42 46 45 46 41 40 33 38 35 35 36 35 31 28 28 30 29 30 35 37 42 45 43 41 43 41 38 36 32 29 25 24 25 29 25
40 39 38 38 36 33 30 29 25 27 30 32 34 30 25 22 22 28 30 30 34 34 40 39 35 36 36 36 32 33 32 31 25 22 23 24 27 25
31 31 30 29 25 18 19 23 27 25 25 28 26 22 19 18 19 24 28 29 25 27 27 29 32 35 36 33 31 32 32 29 23 21 22 26 27 27
25 20 20 16 13 14 16 14 14 15 18 19 19 17 16 15 15 19 23 25 24 27 27 26 26 29 31 32 31 28 23 22 22 24 29 31 32 31
15 14 9 7 9 10 8 8 10 11 12 12 13 14 13 14 18 18 18 20 21 23 26 30 33 33 30 25 24 24 23 24 26 28 30 32 32 30
14 10 9 10 12 10 7 9 10 12 13 11 12 11 14 15 16 17 18 20 23 25 28 32 29 24 24 26 26 26 26 26 27 31 35 38 34 32
10 8 8 6 5 4 5 7 11 12 14 14 14 14 15 15 18 19 22 24 22 23 23 17 25 24 27 27 29 29 28 32 36 39 42 38 34 34
9 6 3 4 5 6 7 9 12 13 14 14 15 16 18 19 20 21 22 23 21 20 23 19 19 21 27 29 32 34 37 38 36 34 35 38 45 50
4 1 2 5 7 9 12 14 15 17 16 16 15 16 17 19 20 22 20 18 16 19 22 23 21 25 24 32 38 36 30 22 20 32 44 47 48 48
2 4 5 9 11 10 14 14 13 15 16 17 17 16 15 15 18 15 10 13 16 18 26 27 25 30 30 27 19 11 7 20 37 38 42 47 49 50
4 6 8 10 13 11 11 11 11 12 13 14 14 14 13 13 12 14 16 19 22 20 18 26 33 34 23 18 10 11 27 36 22 41 41 43 46 49
5 7 10 13 12 12 10 10 9 9 10 10 10 9 10 13 15 18 21 25 28 31 29 34 40 40 35 42 40 35 35 36 41 33 34 35 32 40
6 7 10 11 10 10 10 11 10 8 9 9 9 11 14 18 22 25 28 31 33 34 31 33 39 41 42 50 56 46 54 52 47 37 15 31 38 39
7 8 8 10 9 10 11 10 10 11 11 12 14 18 20 23 26 29 31 33 35 33 29 29 33 38 41 48 60 57 59 54 42 35 39 39 44 45
8 8 10 10 11 11 12 13 14 15 16 17 20 24 28 29 28 28 29 30 32 21 19 24 31 39 42 43 51 60 54 60 53 40 42 46 45 42
9 11 13 14 14 14 15 16 17 19 22 23 25 28 27 27 27 26 26 29 31 30 25 19 30 41 44 46 54 53 54 48 43 41 45 53 46 44
10 13 15 17 18 19 20 21 22 24 26 28 31 30 30 30 30 28 26 29 33 31 33 34 35 38 44 47 44 43 45 43 36 45 46 56 59 47
14 16 18 20 21 23 24 26 26 27 30 32 34 32 32 33 32 30 28 31 33 36 35 36 35 33 43 53 60 44 38 48 50 47 47 49 56 53
18 19 21 24 25 26 27 28 28 31 34 35 37 37 36 36 37 34 32 36 39 41 41 32 31 34 42 50 59 60 48 50 47 51 51 48 50 50
22 23 25 27 28 30 31 32 34 35 37 39 40 40 40 41 42 40 39 39 42 45 50 45 34 36 43 50 58 61 56 51 46 49 50 54 55 60
26 28 28 30 31 33 35 37 38 38 39 41 42 43 43 43 44 44 42 44 44 46 51 49 41 40 43 47 56 60 60 51 46 46 41 41 49 54
30 31 30 32 33 36 38 40 40 39 40 41 42 43 45 46 46 46 45 47 50 52 51 52 50 48 48 51 55 59 61 59 57 56 48 50 59 55
Wind_Direction_850mb
268 273 275 272 273 269 272 276 279 278 292 294 292 289 297 296 297 290 287 266 247 247 255 263 275 275 266 262 262 266 270 273 273 276 280 288 287 282
271 271 271 271 268 268 272 271 271 281 282 289 289 292 291 289 288 289 280 266 255 256 263 271 276 273 269 272 275 273 274 273 274 276 281 276 277 278
270 267 265 263 265 265 268 280 279 280 283 283 283 281 282 280 284 277 276 274 269 270 273 272 272 270 270 268 266 269 273 273 276 279 277 278 282 280
259 259 259 261 259 259 262 263 257 262 269 272 272 273 277 276 272 272 275 282 280 277 273 273 271 268 266 268 277 278 277 280 277 278 279 278 277 281
255 250 255 250 262 264 271 278 270 271 274 273 276 284 286 287 286 280 273 273 275 274 276 278 275 274 277 278 276 277 279 285 288 288 285 283 283 282
230 234 225 238 266 271 269 265 270 278 283 287 294 301 297 291 282 273 267 262 267 274 277 276 275 278 279 280 283 286 289 290 290 289 286 284 283 283
206 195 204 231 249 256 266 278 285 290 291 294 284 282 281 275 276 280 282 285 288 288 283 282 283 276 276 284 282 284 288 290 289 286 286 286 288 287
179 188 218 242 256 263 290 297 294 299 295 296 292 286 281 280 281 283 286 288 295 290 287 274 283 283 282 283 285 286 287 290 286 280 280 289 290 289
176 198 212 252 275 296 299 295 299 300 299 299 295 292 290 288 287 289 294 297 297 290 292 289 283 280 281 279 284 291 288 282 281 286 289 287 287 288
183 213 271 289 299 299 300 298 299 299 301 302 299 297 294 294 292 292 293 294 299 300 300 300 298 295 289 288 291 286 281 278 280 283 282 281 283 286
257 289 301 300 308 306 301 300 304 306 308 309 311 308 307 305 308 313 313 301 302 306 302 302 307 306 311 302 286 274 258 284 292 287 288 289 289 290
286 297 312 308 309 313 318 319 314 307 304 304 304 302 299 299 300 304 305 305 308 317 299 306 305 314 317 296 218 285 292 299 287 302 293 288 289 291
300 311 315 322 330 324 323 319 317 315 311 308 304 297 292 292 296 297 297 298 299 299 301 299 301 305 304 299 292 296 302 305 309 308 294 286 290 296
310 320 322 323 317 317 318 316 317 311 308 306 302 298 297 297 298 297 297 298 298 300 305 298 294 298 298 298 299 310 309 314 318 323 301 299 295 294
324 321 314 316 315 314 315 311 302 301 302 301 300 299 298 298 296 296 295 297 299 305 304 300 295 293 288 291 297 305 310 316 317 315 311 303 305 304
317 319 320 321 317 311 308 301 296 293 293 294 297 298 299 298 298 298 297 296 295 301 301 303 298 296 297 296 294 299 309 307 311 312 308 306 310 308
310 315 315 314 311 309 304 298 293 291 292 295 298 299 298 300 302 302 301 302 307 314 308 296 293 295 296 298 296 304 309 303 307 308 305 304 307 313
302 307 307 309 310 306 301 295 289 287 291 297 301 301 301 301 302 304 303 299 304 307 309 311 306 297 292 289 295 305 305 304 309 309 308 308 310 314
299 301 305 307 306 304 298 296 291 288 291 295 298 299 299 299 299 302 299 297 300 303 307 310 308 302 303 302 308 310 312 315 315 308 309 308 306 312
291 298 301 300 303 303 301 300 295 292 293 296 299 301 299 297 296 295 292 294 298 301 302 306 314 304 297 301 300 303 311 312 313 313 313 308 308 311
288 293 294 297 300 302 302 300 299 297 297 299 301 302 301 297 293 292 289 292 299 304 304 307 312 305 301 298 294 303 311 312 312 314 315 312 317 318
283 289 293 297 299 300 299 299 298 298 297 297 298 297 296 296 294 291 289 290 293 296 299 303 305 305 298 295 296 300 304 309 312 309 303 304 309 304
282 288 292 295 297 297 298 297 296 298 297 296 295 294 292 292 292 291 290 290 293 296 299 303 304 307 303 301 303 304 308 313 318 316 311 324 320 312